STARLINK-4619, 54191

Orbit data source: Space-Track

STARLINK-4619, 54191 is a payload satellite owned by SpaceX/Seattle (US) in LEO that was launched on Fri, 28 Oct 2022 UTC via an FALCON 9 launch vehicle from the Air Force Western Test Range (AFWTR). Payload-class satellites include a variety of spacecraft equipped with specific instruments for various scientific and technological missions. These include communications satellites like Starlink; space stations such as the ISS; scientific satellites like the Hubble; Earth observation satellites from companies like Planet Labs, Umbra, and HawkEye 360; GPS; miniature CubeSats for education and research; and military/defense satellites.

Loading next visibility...
Identifier
54191, 2022-141AL
Orbit
LEO
Country
Flag of USUS
Related business
Manufacturer
SpaceX/Seattle
Mission
Operational Commercial Communications
Bus & Motor
STARLINK, Unknown motor
Mass
305 kg wet, ~290 kg dry
Launch date (UTC)
2022-10-28 (4 years ago)
Launch vehicle
FALCON 9
Launch site
Air Force Western Test Range (AFWTR)
Object type
Payload
Rocket body
Debris
Shape & HBR
Box + 1 Pan, 10.1 m
Radar Cross Section
13.562 m², Large (>1 m²)

Expand to show TLE details & history
Last TLE update: 3 days ago

TLE from 3 days ago
0 STARLINK-4619
1 54191U 22141AL  26170.56112582 -.00001277  00000-0 -62124-4 0  9994
2 54191  53.1600 256.9264 0001061  85.8859 274.2254 15.08848528201370
Epoch: 2026-06-19T13:28Z
TLE epoch observation values (Epoch: 2026-06-19T13:28:01.270Z)
Latitude
-0.00001°
Longitude
147.13276°
Altitude
540.555 km
Speed
7.593 km/s
True Right ascension
17h 07m 42s
True Declination
0° 00' 00"
Sunlit
Object was in full shadow at epoch
Visualization orbit readout
Latitude
Unknown
Longitude
Unknown
Altitude
Unknown
Speed
Unknown
Apparent Right ascension
Unknown
Apparent Declination
Unknown
Sunlit
N/A
Visualization observer readout
Local Sidereal Time
21:37:45
Azimuth
Unknown
Elevation
Unknown
Doppler factor
Unknown
Orbital elements
Apogee altitude
540.705 km
Perigee altitude
539.237 km
Semi-major axis
6,918.108 km
Eccentricity
0.00011
Inclination
53.16°
RAAN
256.9264°
Arg. of periapsis
85.8859°
True anomaly
274.21327°
Mean anomaly
274.2254°
Eccentric anomaly
274.21934°
Mean motion
3.77192 °/min
Orbital period
95.44 mins
BSTAR
-0.000062124
Loading maneuver chart data...
Computing Atmospheric mass density...
Loading historical data...
Loading historical data...
Loading historical data...
Loading historical data...
Loading historical data...
Loading historical data...
Loading historical data...

Documentation

Showing up to 5 results
|